Regional Weather Roundup
Issued by NWS

Home | Current Version | Previous Version | Graphics & Text | Print | Product List | Glossary On
Versions: 1 2 3 4 5 6 7 8 9 10 11 12 13 14 15 16 17 18 19 20 21 22 23 24 25 26 27 28 29 30 31 32 33 34 35 36 37 38 39 40 41 42 43 44 45 46 47 48 49 50
617
ASUS45 KCYS 221010
RWRWY

WYOMING REGIONAL WEATHER ROUNDUP
NATIONAL WEATHER SERVICE CHEYENNE WY
300 AM MST THU FEB 22 2018

NOTE:  "FAIR" INDICATES FEW OR NO CLOUDS BELOW 12,000 FEET
WITH NO SIGNIFICANT WEATHER AND/OR OBSTRUCTIONS TO VISIBILITY.

WYZ001-221100-
YELLOWSTONE NATIONAL PARK

CITY           SKY/WX    TMP DP  RH WIND       PRES   REMARKS
LK YELLOWSTONE   N/A    -12 -17  78 NW3       29.91F
W YELLOWSTONE  NOT AVBL

$$
WYZ002>013-054>058-071-098>099-221100-
NORTHERN WYOMING

CITY           SKY/WX    TMP DP  RH WIND       PRES   REMARKS
JACKSON        CLOUDY     2  -5  72 N5        29.99S WCI  -8
CODY           FAIR       6  -2  69 W5        30.00F WCI  -3
GREYBULL       FAIR     -16 -20  82 SW5       30.09F WCI -29
WORLAND        FAIR     -13 -19  75 CALM      30.07F
SHERIDAN       FAIR     -13 -17  82 S3        30.06S
BUFFALO        FAIR      11  -6  46 NW7       30.00F WCI   0
GILLETTE       FAIR       9  -2  61 SE9       30.04F WCI  -4
HULETT         FAIR      10   3  72 MISG      30.06S
NEWCASTLE      FAIR       1  -4  78 N9        30.10S WCI -14

$$
WYZ014>020-022>026-101>103-221100-
CENTRAL WYOMING

CITY           SKY/WX    TMP DP  RH WIND       PRES   REMARKS
BIG PINEY      FAIR     -15 -18  86 NE5       29.98F WCI -27
PINEDALE       FAIR     -15 -20  76 W7        29.98F WCI -31
DUBOIS           N/A    N/A N/A N/A MISG        N/A
LANDER         FAIR      -5  -9  83 SE5       30.01S WCI -16
RIVERTON       FAIR      -7 -13  75 SW7       30.02F WCI -21
CASPER         FAIR       8   0  69 W18       30.01F WCI -11
DOUGLAS        FAIR      -5  -9  83 NW3       30.05F

$$
WYZ021-027>030-104>119-221100-
SOUTHERN WYOMING

CITY           SKY/WX    TMP DP  RH WIND       PRES   REMARKS
EVANSTON       FAIR       1  -5  75 E9        29.92F WCI -14
ROCK SPRINGS   CLOUDY     2  -3  80 S5        29.96F WCI  -8
DIXON          PTSUNNY    0  -5  80 CALM      30.00F
RAWLINS        MOCLDY    -3  -8  79 NW6       29.96F WCI -15
SARATOGA       FAIR      -4  -4 100 CALM      29.96F
LARAMIE        CLOUDY     3   1  91 SW3       29.93F
CHEYENNE       FAIR       7   4  87 W6        29.97F WCI  -3
TORRINGTON     FAIR       8   6  92 E7        30.08F WCI  -3
PINE BLUFFS    FAIR      -2  -6  84 MISG      30.05F

$$




USA.gov is the U.S. government's official web portal to all federal, state and local government web resources and services.